Tracking 28790 objects as of 19-Apr-2024
HD Live streaming from Space Station
objects crossing your sky now

CZ-2D DEB

Track CZ-2D DEB now!
10-day predictions


NORAD ID: 36292
Int'l Code: 2008-056H
Perigee: 778.0 km
Apogee: 1,007.8 km
Inclination: 98.7 °
Period: 102.7 minutes
Semi major axis: 7263 km
RCS: 0.0014 m2 (small)
Launch date: November 5, 2008
Source: People's Republic of China (PRC)
Launch site: Jiuquan Satellite Launch Center, China (JSC)

Note: This is SATELLITE DEBRIS
Your satellite tracking list
Your tracking list is empty




NASA's NSSDC Master Catalog

Two Line Element Set (TLE):
1 36292U 08056H   24109.30113643  .00001480  00000-0  88967-3 0  9992
2 36292  98.6927 235.6152 0158202 277.6638  80.6588 14.02327205788280
Source of the keplerian elements: AFSPC